Regional Weather Roundup
Issued by NWS

Home | Current Version | Previous Version | Text Only | Print | Product List | Glossary On
Versions: 1 2 3 4 5 6 7 8 9 10 11 12 13 14 15 16 17 18 19 20 21 22 23 24 25 26 27 28 29 30 31 32 33 34 35 36 37 38 39 40 41 42 43 44 45 46 47 48 49 50
000
ASUS44 KFWD 180210
RWRTX
NORTH TEXAS HOURLY WEATHER ROUNDUP
NATIONAL WEATHER SERVICE FORT WORTH TX
800 PM CST SUN DEC 17 2017

NOTE: "FAIR" INDICATES FEW OR NO CLOUDS BELOW 12,000 FEET WITH NO
SIGNIFICANT WEATHER AND/OR OBSTRUCTIONS TO VISIBILITY.

TXZ118-119-180300-
DALLAS/FORT WORTH METROPLEX

CITY           SKY/WX    TMP DP  RH WIND       PRES   REMARKS
DFW AIRPORT    CLOUDY    48  45  89 SE5       30.08R
DALLAS LOVE    CLOUDY    50  46  86 SE10      30.10R
FTW MEACHAM    CLOUDY    48  46  93 SE6       30.09R
DAL-EXECUTIVE  CLOUDY    47  46  97 SE8       30.10R
FTW-ALLIANCE   CLOUDY    39  39 100 SE5       30.08R WCI  36
FTW-NAS-JRB    CLOUDY    48  45  87 E5        30.09R
FTW-SPINKS     CLOUDY    45  44  94 CALM      30.11R FOG
ARLINGTON      CLOUDY    48  47  96 SE8       30.10R
GRAND PRAIRIE  CLOUDY    48  48 100 E6        30.11R
ADDISON        CLOUDY    48  45  87 SE3       30.10R
MESQUITE       CLOUDY    48  46  93 SE9       30.11R
LANCASTER      CLOUDY    46  45  93 CALM      30.11R
$$

TXZ091>094-102>105-117-120-121-131>134-180300-
NORTH CENTRAL TEXAS

CITY           SKY/WX    TMP DP  RH WIND       PRES   REMARKS
SHRMAN/DENISON CLOUDY    47  44  90 CALM      30.10R
GAINESVILLE    CLOUDY    43  42  96 E5        30.10R FOG
BOWIE          CLOUDY    43  42  97 CALM      30.07R
BRIDGEPORT     CLOUDY    45  45 100 CALM      30.09R
DECATUR        CLOUDY    43  42  95 SE6       30.06R FOG     WCI  40
DENTON         CLOUDY    42  42 100 SE5       30.09R WCI  39
MCKINNEY       CLOUDY    48  46  93 SE6       30.10R
BONHAM         CLOUDY    46  44  90 CALM      30.11R
ROCKWALL       CLOUDY    48  47  95 CALM      30.10R
TERRELL        CLOUDY    49  45  86 SE8       30.12R
WAXAHACHIE     CLOUDY    46  46 100 CALM      30.11R FOG
GRANBURY       CLOUDY    49  47  90 SE7       30.10R
$$

TXZ083>090-098>101-113>116-127>130-139>142-154-155-180300-
WESTERN NORTH TEXAS

CITY           SKY/WX    TMP DP  RH WIND       PRES   REMARKS
WICHITA FALLS  CLOUDY    43  36  76 N5        30.07R
WF-KICKAPOO    CLOUDY    47  37  68 N6        30.09R
VERNON         CLOUDY    41  32  71 CALM      30.07S
ABILENE        CLOUDY    49  37  63 CALM      30.06R
ABILENE-DYESS  CLOUDY    46  36  67 CALM      30.05R
GRAHAM           N/A     47  38  70 CALM      30.06R
BRECKENRIDGE   CLOUDY    50  36  57 NE3       30.07R
CISCO          CLOUDY    54  45  71 SE3       30.06R
EASTLAND       CLOUDY    42  38  86 NW3       30.06R
RANGER         CLOUDY    47  41  78 SW3       30.06R
MINERAL WELLS  CLOUDY    47  44  90 E5        30.06R
STEPHENVILLE   CLOUDY    49  46  87 SE3       30.09R
COMANCHE       CLOUDY    53  46  76 CALM      30.06R
COLEMAN        PTCLDY    48  40  74 CALM      30.06R
$$

TXZ143>147-156>162-174-175-180300-
CENTRAL TEXAS

CITY           SKY/WX    TMP DP  RH WIND       PRES   REMARKS
WACO           CLOUDY    43  43 100 SE5       30.09R FOG
WACO-TSTC      CLEAR     43  41  93 CALM      30.09R FOG
WACO-MCGREGOR  CLOUDY    46  45  96 E3        30.09R
HILLSBORO      CLOUDY    47  47  97 CALM      30.08R
CORSICANA      CLOUDY    49  49 100 SE6       30.10S FOG
MEXIA          CLOUDY    48  47  97 E7        30.09R FOG
HEARNE         CLOUDY    49  49 100 CALM      30.13R
CAMERON        CLOUDY    50  49  94 SE5       30.10R
TEMPLE         FOG       46  46 100 E5        30.10R VSB 1/2
KILLEEN        CLOUDY    48  47  97 SE8       30.07R
KILLEEN-SKYLRK CLOUDY    49  48  97 SE5       30.09R
FORT HOOD      CLOUDY    47  46  98 SE7       30.04R FOG
GATESVILLE     CLOUDY    48  48 100 CALM      30.09R FOG
HAMILTON       CLOUDY    50  50 100 SE8       30.07R
LAMPASAS       CLOUDY    50  49  96 SE5       30.07R
$$

TXZ095>097-106>112-122>126-135>138-148>153-164>167-180300-
EAST TEXAS

CITY           SKY/WX    TMP DP  RH WIND       PRES   REMARKS
PARIS          CLOUDY    47  32  56 SE5       30.11R HAZE
SULPHUR SPRNGS CLOUDY    50  47  92 CALM      30.13R
MOUNT PLEASANT CLOUDY    48  47  97 CALM      30.13S
GILMER         CLOUDY    48  47  97 CALM      30.12R
MINEOLA        CLOUDY    50  48  93 CALM      30.11R
TYLER          MOCLDY    47  46  97 E5        30.10R
LONGVIEW       FOG       49  49 100 E5        30.11R VSB 1/2
MARSHALL       CLOUDY    47  46  93 CALM      30.14R VSB 3/4
ATHENS         CLOUDY    41  41 100 CALM      30.09S FOG
PALESTINE      FOG       48  48 100 S3        30.11S VSB 1/2
JACKSONVILLE   FOG       47  47 100 S3        30.11R VSB 1/4
HENDERSON      CLOUDY    50  49  97 SE3       30.12R FOG
CENTER         FOG       47  46  95 CALM      30.13R VSB 1/2
NACOGDOCHES    CLOUDY    51  51 100 SE3       30.11S FOG
LUFKIN         FOG       50  50 100 E5        30.10R VSB 1/4
$$

SUPPLEMENTAL OBSERVATIONS (NWS FORT WORTH AREA)

CITY           SKY/WX    TMP DP  RH WIND       PRES   REMARKS
CADDO GRASSLND   N/A     46  43  87 CALM        N/A
PAT MAYSE LAKE   N/A     46  45  93 NE3         N/A
GREENVILLE       N/A     48  43  81 S2          N/A
CEDAR HILL       N/A     46  41  81 S1          N/A
LBJ GRASSLAND    N/A     45  41  87 E6          N/A
POSSUM KINGDOM   N/A     50  37  62 N3          N/A
GRANBURY         N/A     48  43  81 SE8         N/A
MCGREGOR         N/A     46  45  93 SE2         N/A
TEMPLE           N/A     48  46  93 E5          N/A
$$

SUPPLEMENTAL OBSERVATIONS (NWS NORMAN AREA)

CITY           SKY/WX    TMP DP  RH WIND       PRES   REMARKS
GOODLETT         N/A     43  30  60 E3        30.07R
ODELL            N/A     40  36  86 E3        30.08S
CROWELL          N/A     44  35  68 CALM      30.08R
KNOX CITY        N/A     39  31  72 NE2       30.08R
SEYMOUR          N/A     42  34  71 CALM      30.07S
MILLERS CREEK    N/A     43  34  70 CALM        N/A
$$

SUPPLEMENTAL OBSERVATIONS (NWS SAN ANGELO AREA)

CITY           SKY/WX    TMP DP  RH WIND       PRES   REMARKS
WEINERT          N/A     40  31  71 E5        30.08R WCI  37
HASKELL          N/A     45  34  65 E5        30.07S
THROCKMORTON     N/A     44  39  81 W2        30.08R
STAMFORD         N/A     43  34  70 NE6       30.08R WCI  39
CLYDE            N/A     47  38  70 E5        30.07R
HAMBY            N/A     45  32  61 NE2         N/A
IVIE RESERVOIR   N/A     54  43  66 E6          N/A
COLORADO BEND    N/A     52  48  87 SE6         N/A
$$

SUPPLEMENTAL OBSERVATIONS (NWS SHREVEPORT AREA)

CITY           SKY/WX    TMP DP  RH WIND       PRES   REMARKS
CLARKSVILLE      N/A     46  45  93 SE3         N/A
TEXARKANA        N/A     46  45  93 E1          N/A
LINDEN           N/A     46  45  93 SE1         N/A
GILMER           N/A     48  46  93 E2          N/A
HENDERSON        N/A     50  48  93 SE5         N/A
LUFKIN           N/A     52  50  93 MISG        N/A
N SABINE NF      N/A     48  46  93 MISG        N/A
S SABINE NF      N/A     52  50  93 CALM        N/A
$$

SUPPLEMENTAL OBSERVATIONS ARE A COLLECTION OF AUTOMATED INSTRUMENTS
THAT ARE MAINTAINED BY A VARIETY OF FEDERAL AND STATE AGENCIES.
CERTAIN ELEMENTS...SUCH AS HUMIDITY VALUES AND SUSTAINED WIND
SPEEDS...MAY BE APPROXIMATED.





USA.gov is the U.S. government's official web portal to all federal, state and local government web resources and services.